When you browse on this site, cookies collect data to enhance your experience and personalize the content and advertising you see.
Visit our Privacy Policy to learn more. By continuing to use the site, you agree to this use of cookies and data.
  • In Romania
  • List of Countries
  • For 7 days
  • Water Temperature
  • Weather Map
  • Weather Widgets
  • user-avatar
    Login

    Hourly Weather Macapa

    Today, 7 December, Saturday

    Time Temperature Precipitation Wind Pressure Humidity
    00:00 +27°C° 0 mm 3 mps 757 mmHg 88%
    01:00 +27°C° 0 mm 2 mps 757 mmHg 89%
    02:00 +26°C° 0 mm 2 mps 756 mmHg 90%
    03:00 +26°C° 0 mm 2 mps 756 mmHg 92%
    04:00 +26°C° 0 mm 2 mps 756 mmHg 92%
    05:00 +26°C° 0 mm 2 mps 756 mmHg 92%
    06:00 +26°C° 0 mm 2 mps 757 mmHg 92%
    07:00 +28°C° 0.1 mm 2 mps 757 mmHg 84%
    08:00 +29°C° 0.1 mm 3 mps 758 mmHg 76%
    09:00 +31°C° 0 mm 3 mps 758 mmHg 68%
    10:00 +33°C° 0.1 mm 3 mps 758 mmHg 63%
    11:00 +34°C° 0.1 mm 3 mps 758 mmHg 57%
    12:00 +36°C° 0.1 mm 4 mps 758 mmHg 51%
    13:00 +36°C° 0 mm 4 mps 757 mmHg 49%
    14:00 +36°C° 0 mm 4 mps 756 mmHg 48%
    15:00 +36°C° 0 mm 4 mps 755 mmHg 46%
    16:00 +35°C° 0 mm 4 mps 755 mmHg 50%
    17:00 +34°C° 0 mm 4 mps 755 mmHg 55%
    18:00 +32°C° 0 mm 4 mps 755 mmHg 59%
    19:00 +30°C° 0 mm 4 mps 755 mmHg 65%
    20:00 +29°C° 0 mm 4 mps 756 mmHg 71%
    21:00 +28°C° 0 mm 4 mps 757 mmHg 77%
    22:00 +28°C° 0 mm 4 mps 757 mmHg 80%
    23:00 +27°C° 0 mm 3 mps 757 mmHg 83%

    Tomorrow, 8 December, Sunday

    Time Temperature Precipitation Wind Pressure Humidity
    00:00 +27°C° 0 mm 3 mps 757 mmHg 86%
    01:00 +27°C° 0 mm 3 mps 756 mmHg 88%
    02:00 +26°C° 0 mm 3 mps 756 mmHg 90%
    03:00 +26°C° 0 mm 2 mps 756 mmHg 92%
    04:00 +26°C° 0 mm 2 mps 756 mmHg 93%
    05:00 +26°C° 0 mm 2 mps 756 mmHg 93%
    06:00 +25°C° 0 mm 2 mps 757 mmHg 94%
    07:00 +27°C° 0 mm 2 mps 757 mmHg 86%
    08:00 +29°C° 0 mm 3 mps 757 mmHg 77%
    09:00 +31°C° 0 mm 3 mps 758 mmHg 68%
    10:00 +33°C° 0 mm 3 mps 758 mmHg 62%
    11:00 +34°C° 0 mm 3 mps 757 mmHg 56%
    12:00 +36°C° 0 mm 4 mps 757 mmHg 51%
    13:00 +36°C° 0 mm 4 mps 756 mmHg 49%
    14:00 +36°C° 0 mm 4 mps 755 mmHg 48%
    15:00 +36°C° 0 mm 4 mps 754 mmHg 47%
    16:00 +35°C° 0 mm 4 mps 755 mmHg 52%
    17:00 +33°C° 0 mm 4 mps 755 mmHg 58%
    18:00 +32°C° 0 mm 4 mps 755 mmHg 63%
    19:00 +30°C° 0 mm 4 mps 755 mmHg 68%
    20:00 +29°C° 0 mm 4 mps 756 mmHg 73%
    21:00 +28°C° 0 mm 4 mps 757 mmHg 79%
    22:00 +28°C° 0.1 mm 4 mps 757 mmHg 80%
    23:00 +28°C° 0.1 mm 4 mps 757 mmHg 82%

    Day after tomorrow, 9 December, Monday

    Time Temperature Precipitation Wind Pressure Humidity
    00:00 +27°C° 0.1 mm 3 mps 757 mmHg 84%
    01:00 +27°C° 0.1 mm 3 mps 756 mmHg 85%
    02:00 +27°C° 0.1 mm 3 mps 756 mmHg 87%
    03:00 +27°C° 0.1 mm 3 mps 756 mmHg 88%
    04:00 +26°C° 0.1 mm 3 mps 756 mmHg 89%
    05:00 +26°C° 0.1 mm 3 mps 756 mmHg 90%
    06:00 +26°C° 0.1 mm 2 mps 756 mmHg 91%
    07:00 +28°C° 0 mm 3 mps 757 mmHg 82%
    08:00 +30°C° 0 mm 3 mps 757 mmHg 73%
    09:00 +32°C° 0 mm 4 mps 758 mmHg 64%
    10:00 +33°C° 0.2 mm 4 mps 758 mmHg 61%
    11:00 +34°C° 0.2 mm 4 mps 757 mmHg 58%
    12:00 +35°C° 0.2 mm 4 mps 757 mmHg 55%
    13:00 +35°C° 0.3 mm 4 mps 756 mmHg 54%
    14:00 +35°C° 0.3 mm 5 mps 756 mmHg 54%
    15:00 +35°C° 0.3 mm 5 mps 755 mmHg 53%
    16:00 +34°C° 0.1 mm 5 mps 755 mmHg 57%
    17:00 +33°C° 0.1 mm 4 mps 755 mmHg 62%
    18:00 +32°C° 0.1 mm 4 mps 756 mmHg 66%
    19:00 +30°C° 0 mm 4 mps 756 mmHg 70%
    20:00 +29°C° 0 mm 4 mps 756 mmHg 74%
    21:00 +28°C° 0 mm 4 mps 757 mmHg 78%
    22:00 +28°C° 0 mm 4 mps 757 mmHg 80%
    23:00 +27°C° 0 mm 3 mps 757 mmHg 82%

    10 December, Tuesday

    Time Temperature Precipitation Wind Pressure Humidity
    00:00 +27°C° 0 mm 3 mps 757 mmHg 85%
    01:00 +27°C° 0 mm 3 mps 757 mmHg 86%
    02:00 +26°C° 0 mm 3 mps 756 mmHg 88%
    03:00 +26°C° 0 mm 2 mps 756 mmHg 89%
    04:00 +26°C° 0 mm 2 mps 756 mmHg 90%
    05:00 +26°C° 0 mm 2 mps 756 mmHg 91%
    06:00 +26°C° 0 mm 2 mps 757 mmHg 92%
    07:00 +27°C° 0 mm 2 mps 757 mmHg 84%
    08:00 +29°C° 0 mm 3 mps 757 mmHg 75%
    09:00 +31°C° 0 mm 3 mps 758 mmHg 67%
    10:00 +33°C° 0.1 mm 4 mps 758 mmHg 63%
    11:00 +34°C° 0.1 mm 4 mps 758 mmHg 58%
    12:00 +35°C° 0.1 mm 5 mps 757 mmHg 54%
    13:00 +35°C° 0.4 mm 5 mps 757 mmHg 54%
    14:00 +35°C° 0.4 mm 5 mps 756 mmHg 55%
    15:00 +34°C° 0.4 mm 5 mps 755 mmHg 55%
    16:00 +33°C° 0.4 mm 5 mps 755 mmHg 61%
    17:00 +32°C° 0.4 mm 5 mps 755 mmHg 66%
    18:00 +30°C° 0.4 mm 4 mps 755 mmHg 71%
    19:00 +29°C° 0.2 mm 4 mps 756 mmHg 76%
    20:00 +28°C° 0.2 mm 3 mps 756 mmHg 80%
    21:00 +27°C° 0.2 mm 3 mps 757 mmHg 85%
    22:00 +27°C° 0 mm 3 mps 757 mmHg 86%
    23:00 +27°C° 0 mm 3 mps 757 mmHg 88%

    11 December, Wednesday

    Time Temperature Precipitation Wind Pressure Humidity
    00:00 +26°C° 0 mm 2 mps 757 mmHg 90%
    01:00 +26°C° 0 mm 2 mps 756 mmHg 91%
    02:00 +26°C° 0 mm 2 mps 756 mmHg 92%
    03:00 +25°C° 0 mm 2 mps 755 mmHg 93%
    04:00 +25°C° 0 mm 2 mps 756 mmHg 94%
    05:00 +25°C° 0 mm 2 mps 756 mmHg 94%
    06:00 +25°C° 0 mm 2 mps 756 mmHg 94%
    07:00 +27°C° 0 mm 2 mps 756 mmHg 86%
    08:00 +29°C° 0 mm 3 mps 757 mmHg 78%
    09:00 +30°C° 0 mm 3 mps 757 mmHg 70%
    10:00 +33°C° 0 mm 3 mps 757 mmHg 64%
    11:00 +34°C° 0 mm 4 mps 757 mmHg 57%
    12:00 +35°C° 0 mm 4 mps 757 mmHg 51%
    13:00 +35°C° 0.1 mm 4 mps 756 mmHg 51%
    14:00 +35°C° 0.1 mm 4 mps 755 mmHg 50%
    15:00 +35°C° 0.1 mm 4 mps 754 mmHg 50%
    16:00 +34°C° 0.1 mm 4 mps 754 mmHg 56%
    17:00 +33°C° 0.1 mm 4 mps 754 mmHg 61%
    18:00 +30°C° 0.1 mm 4 mps 754 mmHg 66%
    19:00 +30°C° 0 mm 4 mps 755 mmHg 71%
    20:00 +29°C° 0 mm 4 mps 755 mmHg 77%
    21:00 +28°C° 0 mm 4 mps 756 mmHg 82%
    22:00 +27°C° 0 mm 3 mps 756 mmHg 84%
    23:00 +27°C° 0 mm 3 mps 756 mmHg 86%

    12 December, Thursday

    Time Temperature Precipitation Wind Pressure Humidity
    00:00 +26°C° 0 mm 3 mps 756 mmHg 88%
    01:00 +26°C° 0 mm 2 mps 756 mmHg 89%
    02:00 +26°C° 0 mm 2 mps 755 mmHg 90%
    03:00 +26°C° 0 mm 2 mps 755 mmHg 92%
    04:00 +26°C° 0 mm 2 mps 755 mmHg 92%
    05:00 +26°C° 0 mm 2 mps 755 mmHg 93%
    06:00 +25°C° 0 mm 2 mps 755 mmHg 94%
    07:00 +27°C° 0.1 mm 2 mps 756 mmHg 87%
    08:00 +29°C° 0.1 mm 2 mps 756 mmHg 79%
    09:00 +30°C° 0.1 mm 3 mps 757 mmHg 72%
    10:00 +31°C° 0.4 mm 3 mps 757 mmHg 68%
    11:00 +33°C° 0.4 mm 3 mps 756 mmHg 63%
    12:00 +34°C° 0.4 mm 4 mps 756 mmHg 59%
    13:00 +35°C° 0.3 mm 4 mps 755 mmHg 57%
    14:00 +35°C° 0.3 mm 4 mps 754 mmHg 55%
    15:00 +35°C° 0.3 mm 4 mps 754 mmHg 53%
    16:00 +34°C° 0.1 mm 4 mps 754 mmHg 57%
    17:00 +33°C° 0.1 mm 4 mps 754 mmHg 62%
    18:00 +32°C° 0.1 mm 4 mps 754 mmHg 67%
    19:00 +30°C° 0 mm 4 mps 754 mmHg 72%
    20:00 +29°C° 0 mm 4 mps 755 mmHg 77%
    21:00 +28°C° 0 mm 3 mps 756 mmHg 82%
    22:00 +27°C° 0 mm 3 mps 756 mmHg 84%
    23:00 +27°C° 0 mm 3 mps 756 mmHg 86%
    Show more